Flag for Finland Weather past 2 weeks in Helsinki, Finland

Now
64 °F

Scattered clouds.


Feels Like: 64 °F
Forecast: 53 / 65 °F
Wind: 7 mph from South

Location: Helsinki Malmi Airport

Current Time: Aug 31, 2015 at 2:03:24 PM

Latest Report: Aug 31, 2015 at 1:20 PM


Visibility: N/A

Pressure: 30.07 "Hg

Humidity: 68%

Dew point: 54 °F

Location of HelsinkiLocation

Historic Weather in Helsinki — Graph

°F

Helsinki temperature yesterday

Maximum temperature yesterday: 66 °F (at 12:20 PM)
Minimum temperature yesterday: 45 °F (at 5:50 AM)
Average temperature yesterday: 55 °F

Past Weeks' High & Low Weather Summary

 TemperatureHumidityPressure
High77 °F (Aug 23, 1:20 PM)100% (Aug 17, 11:20 PM)30.45 "Hg (Aug 17, 11:20 PM)
Low43 °F (Aug 18, 5:50 AM)33% (Aug 16, 3:50 PM)29.62 "Hg (Aug 28, 12:20 PM)
Average61 °F77%30.14 "Hg
* Reported Aug 16 12:20 PM — Aug 31 12:50 PM, Helsinki, Weather by CustomWeather, © 2015

Note: Actual official high and low records may vary slightly from our data, if they occured in-between our weather recording intervals... More about our weather records

Advertising

Helsinki weather history for previous 24 hours

 ConditionsComfort  
Time TempWeatherWind HumidityBarometerVisibility
12:50 PM
Mon, Aug 31
64 °FPassing clouds.7 mph64%30.07 "HgN/A
12:20 PM64 °FPassing clouds.6 mph64%30.07 "HgN/A
11:50 AM64 °FPassing clouds.6 mph60%30.07 "HgN/A
11:20 AM64 °FPassing clouds.5 mph64%30.07 "HgN/A
10:50 AM63 °FPassing clouds.3 mph68%30.07 "HgN/A
10:20 AM63 °FSunny.1 mph73%30.07 "Hg10 mi
9:50 AM59 °FSunny.1 mph77%30.07 "Hg10 mi
9:20 AM55 °FSunny.No wind88%30.07 "Hg10 mi
8:50 AM54 °FSunny.No wind94%30.07 "Hg10 mi
8:20 AM50 °FSunny.No wind100%30.07 "Hg10 mi
7:57 AM48 °FSunny.No wind100%30.07 "Hg10 mi
7:20 AM43 °FFog.No wind100%30.07 "Hg1 mi
6:50 AM43 °FFog.No wind100%30.07 "Hg0 mi
6:20 AM43 °FFog.No wind100%30.04 "Hg0 mi
5:50 AM43 °FDense fog.No wind100%30.04 "Hg1 mi
5:20 AM43 °FPassing clouds.No wind100%30.04 "Hg1 mi
4:50 AM43 °FFog.No wind100%30.04 "Hg0 mi
4:20 AM45 °FFog.No wind100%30.04 "Hg0 mi
3:50 AM43 °FDense fog.No wind100%30.04 "Hg0 mi
3:20 AM45 °FDense fog.No wind100%30.04 "Hg0 mi
2:50 AM45 °FLight fog.No wind100%30.04 "Hg1 mi
2:20 AM45 °FFog.No wind100%30.04 "Hg0 mi
1:50 AM46 °FFog.No wind100%30.04 "Hg0 mi
1:20 AM46 °FFog.No wind100%30.04 "Hg0 mi
12:20 AM46 °FFog.No wind100%30.04 "Hg1 mi
11:50 PM
Sun, Aug 30
48 °FPassing clouds.No wind100%30.04 "Hg0 mi
11:20 PM48 °FFog.No wind100%30.04 "Hg0 mi
10:50 PM48 °FPassing clouds.No wind100%30.04 "Hg0 mi
10:20 PM50 °FLight fog.No wind100%30.04 "Hg0 mi
9:50 PM52 °FFog.No wind100%30.04 "Hg2 mi
9:20 PM52 °FSunny.No wind100%30.04 "Hg0 mi
8:50 PM54 °FSunny.1 mph94%30.01 "Hg10 mi
8:20 PM57 °FSunny.3 mph82%30.01 "Hg10 mi
7:50 PM57 °FSunny.5 mph88%30.01 "Hg10 mi
7:20 PM59 °FSunny.5 mph77%30.01 "Hg10 mi
6:50 PM61 °FSunny.3 mph77%30.01 "Hg10 mi
6:20 PM61 °FSunny.2 mph72%30.01 "Hg10 mi
5:50 PM59 °FSunny.3 mph77%30.01 "Hg10 mi
5:20 PM59 °FPartly sunny.2 mph88%30.01 "HgN/A
4:50 PM59 °FThundershowers. Broken clouds.2 mph82%30.04 "HgN/A
4:20 PM57 °FThunderstorms. Broken clouds.6 mph82%30.04 "HgN/A
3:50 PM57 °FThunderstorms. Partly sunny.10 mph82%30.01 "HgN/A
3:20 PM64 °FThundershowers. Broken clouds.8 mph68%30.01 "HgN/A
2:50 PM66 °FThundershowers. Broken clouds.9 mph60%30.01 "HgN/A
2:20 PM66 °FPartly sunny.6 mph52%29.98 "HgN/A
Weather by CustomWeather, © 2015

See weather overviewHow to use our weather pages